Ann Arbor, MI

8:49 PM EDT on July 28, 2016 (GMT -0400)
Ann Arbor Municipal

Weather History for KARB - November, 2011

Change the Weather History Date:

Monday, November 7, 2011

  Actual Average Record
Temperature  
Mean Temperature 56 °F -  
Max Temperature 59 °F 50 °F 60 °F (2001)
Min Temperature 52 °F 31 °F 19 °F (1999)
Degree Days  
Heating Degree Days 10    
Growing Degree Days 6 (Base 50)    
Moisture  
Dew Point 49 °F    
Average Humidity 82    
Maximum Humidity 96    
Minimum Humidity 55    
Precipitation  
Precipitation 0.05 in - - ()
Sea Level Pressure  
Sea Level Pressure 30.22 in    
Wind  
Wind Speed 6 mph (SW)    
Max Wind Speed 10 mph    
Max Gust Speed -    
Visibility 6 miles    
Events Rain    
Averages and records for this station are not official NWS values.
T = Trace of Precipitation, MM = Missing Value Source: NWS Daily Summary

Daily Weather History Graph

Daily Weather History Graph

Search for Another Location

Airport or City:

Trip Planner

Search our weather history database for the weather conditions in past years. The results will help you decide how hot, cold, wet, or windy it might be!

Date:

Astronomy

Nov. 07, 2011 Rise Set
Actual Time 7:15 AM EST 5:21 PM EST
Civil Twilight 6:45 AM EST 5:51 PM EST
Nautical Twilight 6:12 AM EST 6:24 PM EST
Astronomical Twilight 5:39 AM EST 6:57 PM EST
Moon 3:34 PM EST (11/7) 4:14 AM EST (11/7)
Length of Visible Light 11h 05m
Length of Day
10h 06m
Waxing Gibbous, 91% of the Moon is Illuminated
Nov 7
Waxing Gibbous
Nov 10
Full
Nov 18
Last Quarter
Nov 25
New
Dec 2
First Quarter

Hourly Weather History & Observations

Time (EST) Temp. Dew Point Humidity Pressure Visibility Wind Dir Wind Speed Gust Speed Precip Events Conditions
12:53 AM 55.9 °F 39.9 °F 55% 30.17 in 10.0 mi SW 10.4 mph - N/A   Overcast
1:53 AM 55.9 °F 41.0 °F 57% 30.18 in 10.0 mi SW 9.2 mph - N/A   Overcast
2:53 AM 55.0 °F 41.0 °F 59% 30.18 in 10.0 mi SW 10.4 mph - N/A   Overcast
3:53 AM 55.0 °F 41.0 °F 59% 30.18 in 10.0 mi SW 9.2 mph - N/A   Overcast
4:53 AM 54.0 °F 42.1 °F 64% 30.19 in 10.0 mi SW 5.8 mph - N/A   Overcast
5:53 AM 53.1 °F 42.1 °F 66% 30.20 in 10.0 mi SSW 4.6 mph - N/A   Overcast
7:53 AM 52.0 °F 42.1 °F 69% 30.24 in 10.0 mi South 5.8 mph - N/A   Overcast
8:53 AM 52.0 °F 44.1 °F 74% 30.25 in 10.0 mi SSW 3.5 mph - 0.00 in   Overcast
9:53 AM 52.0 °F 46.0 °F 80% 30.25 in 10.0 mi SW 5.8 mph - 0.00 in Rain Light Rain
10:53 AM 55.0 °F 48.9 °F 80% 30.24 in 10.0 mi SW 6.9 mph - 0.00 in   Overcast
11:53 AM 55.9 °F 48.9 °F 77% 30.24 in 10.0 mi SSW 10.4 mph - N/A   Overcast
12:53 PM 57.9 °F 48.9 °F 72% 30.22 in 10.0 mi WSW 6.9 mph - N/A   Overcast
1:53 PM 59.0 °F 48.9 °F 69% 30.21 in 10.0 mi West 5.8 mph - N/A   Overcast
2:00 PM 59.0 °F 50.0 °F 72% 30.21 in 10.0 mi West 5.8 mph - N/A   Overcast
2:23 PM 59.0 °F 50.0 °F 72% 30.20 in 10.0 mi SSW 5.8 mph - N/A   Overcast
2:53 PM 59.0 °F 50.0 °F 72% 30.20 in 10.0 mi SW 5.8 mph - N/A   Overcast
4:53 PM 55.9 °F 50.0 °F 80% 30.21 in 10.0 mi South 8.1 mph - N/A   Overcast
5:53 PM 55.0 °F 51.1 °F 86% 30.22 in 8.0 mi SSW 8.1 mph - N/A   Overcast
7:34 PM 53.6 °F 51.8 °F 94% 30.22 in 4.0 mi Calm Calm - 0.00 in   Overcast
7:43 PM 53.6 °F 51.8 °F 94% 30.22 in 4.0 mi SW 3.5 mph - 0.00 in   Overcast
7:53 PM 53.1 °F 51.1 °F 93% 30.23 in 4.0 mi SW 3.5 mph - 0.00 in   Overcast
8:12 PM 53.6 °F 51.8 °F 94% 30.22 in 4.0 mi Calm Calm - N/A   Overcast
8:53 PM 53.1 °F 52.0 °F 96% 30.24 in 3.0 mi Calm Calm - 0.01 in Rain Light Rain
9:03 PM 53.6 °F 51.8 °F 94% 30.23 in 2.5 mi Calm Calm - 0.00 in Rain Light Rain
9:18 PM 53.6 °F 51.8 °F 94% 30.23 in 2.0 mi SW 3.5 mph - 0.01 in Rain Light Rain
9:28 PM 53.6 °F 51.8 °F 94% 30.23 in 1.8 mi Calm Calm - 0.02 in Rain Light Rain
9:39 PM 53.6 °F 51.8 °F 94% 30.23 in 2.0 mi Calm Calm - 0.02 in Rain Light Rain
9:53 PM 53.1 °F 52.0 °F 96% 30.24 in 1.8 mi Calm Calm - 0.02 in   Overcast
10:26 PM 53.6 °F 51.8 °F 94% 30.23 in 1.2 mi Calm Calm - N/A   Overcast
10:53 PM 53.1 °F 51.1 °F 93% 30.23 in 1.8 mi Calm Calm - N/A   Overcast
11:01 PM 53.6 °F 51.8 °F 94% 30.22 in 1.8 mi Calm Calm - N/A   Overcast
11:17 PM 53.6 °F 51.8 °F 94% 30.22 in 1.2 mi Calm Calm - 0.00 in Rain Light Rain
11:32 PM 53.6 °F 51.8 °F 94% 30.22 in 0.8 mi Calm Calm - 0.01 in Rain Light Rain
11:44 PM 53.6 °F 51.8 °F 94% 30.22 in 0.8 mi Calm Calm - 0.01 in Rain Light Rain
11:53 PM 53.1 °F 52.0 °F 96% 30.22 in 0.8 mi Calm Calm - 0.02 in Rain Light Rain